Volver al catálogo

STARLINK-32227

ActivoComunicacionesVLEO
NORAD 60361·PAYLOAD·🇺🇸 United States

Lanzado Aug 4, 2024 desde Vandenberg Space Force Base

Loading…

Próximos Pases (próximas 24 horas)

TLE

ActualizadoSource: CelesTrak SupGP

Época: Sep 15, 2026, 03:31 UTC

1 60361C 24138G   26258.14701389  .00053444  00000+0  15788-2 0  2588
2 60361  53.1587 148.9450 0001344  77.9752 276.2890 15.34367529    17

Sigue STARLINK-32227 en tiempo real con AllMySat

Download on the App Store